Temp
-14 -14 -14 -14 -14 -14 -15 -15 -15 -15 -15 -15 -15 -14 -15 -15 -15 -15 -16 -16 -16 -16 -17 -17 -17 -18 -18 -19 -19 -18 -19 -19 -19 -19 -19 -21 -22 -22 -23 -24 -24 -24 -24
-15 -15 -15 -15 -15 -15 -15 -15 -15 -15 -15 -15 -15 -15 -15 -15 -15 -16 -16 -16 -17 -17 -17 -17 -17 -18 -18 -19 -19 -19 -19 -19 -19 -19 -21 -22 -22 -23 -25 -27 -27 -26 -25
-15 -15 -15 -15 -15 -16 -15 -15 -15 -15 -15 -15 -15 -15 -15 -15 -16 -16 -16 -17 -17 -17 -17 -17 -18 -18 -19 -19 -19 -19 -19 -19 -20 -20 -21 -23 -24 -24 -26 -28 -28 -27 -26
-16 -15 -16 -16 -16 -16 -16 -16 -16 -16 -15 -15 -16 -16 -16 -16 -16 -16 -17 -18 -18 -17 -18 -18 -18 -19 -19 -19 -19 -20 -19 -19 -20 -21 -22 -23 -24 -25 -27 -29 -30 -29 -28
-16 -15 -16 -16 -16 -16 -16 -16 -16 -16 -16 -16 -16 -16 -16 -16 -16 -17 -18 -18 -18 -18 -18 -18 -19 -19 -19 -19 -20 -20 -20 -19 -21 -22 -23 -24 -24 -26 -27 -29 -29 -30 -29
-16 -16 -16 -16 -16 -16 -16 -16 -16 -16 -16 -16 -16 -16 -16 -17 -17 -17 -18 -18 -18 -18 -19 -19 -19 -19 -19 -19 -20 -20 -20 -19 -21 -22 -22 -23 -24 -25 -27 -27 -28 -29 -29
-15 -15 -16 -16 -16 -16 -16 -16 -16 -16 -16 -17 -17 -17 -17 -17 -17 -18 -18 -18 -18 -18 -19 -19 -19 -19 -19 -20 -20 -20 -20 -19 -20 -21 -22 -22 -24 -25 -26 -26 -27 -27 -26
-15 -15 -16 -16 -16 -16 -16 -16 -17 -17 -17 -17 -17 -17 -17 -17 -18 -18 -19 -19 -19 -19 -19 -19 -20 -20 -20 -20 -20 -20 -20 -19 -21 -21 -23 -22 -23 -24 -25 -25 -25 -25 -24
-16 -16 -17 -17 -17 -17 -16 -17 -17 -17 -17 -17 -18 -18 -18 -18 -18 -19 -19 -19 -19 -19 -19 -20 -20 -20 -20 -20 -21 -20 -20 -20 -21 -21 -22 -22 -23 -23 -24 -24 -24 -23 -23
-18 -17 -18 -18 -17 -17 -17 -17 -17 -17 -18 -18 -18 -18 -18 -18 -19 -19 -20 -20 -20 -20 -19 -20 -20 -20 -20 -21 -21 -21 -21 -20 -21 -21 -22 -22 -23 -23 -23 -23 -24 -24 -23
-18 -18 -18 -18 -17 -17 -17 -17 -17 -18 -19 -19 -19 -19 -19 -19 -19 -20 -20 -20 -20 -20 -20 -20 -21 -21 -20 -21 -21 -21 -21 -21 -20 -21 -23 -22 -23 -23 -23 -23 -23 -23 -23
-18 -19 -19 -18 -18 -18 -18 -18 -18 -18 -19 -19 -19 -19 -20 -20 -20 -20 -20 -20 -20 -20 -20 -20 -21 -21 -21 -21 -21 -21 -21 -21 -20 -21 -22 -23 -23 -24 -24 -23 -24 -24 -23
-20 -20 -19 -19 -19 -19 -19 -19 -19 -19 -19 -20 -20 -20 -20 -20 -20 -20 -20 -21 -21 -20 -20 -20 -21 -21 -21 -21 -21 -21 -21 -21 -21 -21 -21 -22 -23 -23 -23 -23 -23 -23 -24
-20 -21 -20 -20 -20 -20 -20 -20 -20 -20 -20 -20 -20 -20 -20 -20 -20 -20 -20 -21 -21 -21 -21 -20 -21 -21 -21 -21 -21 -22 -22 -21 -21 -21 -21 -21 -22 -22 -23 -22 -22 -23 -23
-21 -21 -21 -20 -20 -21 -20 -20 -20 -21 -21 -20 -21 -21 -21 -21 -21 -21 -21 -21 -21 -21 -21 -21 -21 -22 -22 -21 -21 -22 -22 -22 -22 -21 -21 -21 -21 -22 -22 -22 -22 -22 -22
-22 -21 -21 -21 -21 -21 -21 -21 -21 -21 -21 -21 -21 -21 -21 -21 -21 -21 -21 -21 -21 -21 -21 -21 -21 -21 -22 -21 -22 -22 -22 -22 -22 -22 -21 -21 -22 -21 -21 -21 -21 -21 -20
-23 -23 -22 -22 -21 -21 -21 -21 -22 -22 -22 -22 -22 -22 -21 -21 -21 -21 -22 -22 -22 -22 -21 -21 -21 -22 -22 -22 -22 -22 -22 -22 -22 -22 -22 -22 -22 -22 -21 -21 -20 -21 -21
-23 -24 -23 -22 -22 -22 -22 -22 -23 -23 -23 -23 -22 -22 -22 -22 -22 -22 -22 -22 -22 -22 -22 -21 -22 -22 -22 -22 -22 -22 -22 -22 -22 -22 -22 -22 -22 -22 -22 -23 -23 -23 -23
-25 -25 -25 -25 -24 -23 -23 -23 -23 -23 -23 -23 -23 -22 -22 -23 -22 -22 -22 -23 -22 -22 -22 -22 -22 -22 -22 -22 -22 -22 -22 -22 -22 -22 -22 -23 -22 -23 -23 -23 -23 -23 -23
-26 -25 -25 -25 -25 -24 -23 -23 -24 -23 -24 -24 -23 -23 -23 -23 -23 -23 -23 -23 -23 -23 -23 -23 -23 -23 -22 -23 -23 -22 -22 -22 -22 -23 -23 -23 -23 -23 -23 -23 -23 -23 -24
-27 -26 -26 -25 -25 -25 -25 -24 -25 -24 -24 -24 -23 -23 -24 -24 -24 -23 -24 -24 -24 -23 -23 -23 -23 -23 -23 -23 -23 -23 -23 -22 -23 -23 -23 -23 -23 -23 -23 -23 -23 -24 -24
-27 -27 -26 -26 -26 -26 -26 -25 -24 -24 -24 -24 -24 -24 -24 -24 -24 -24 -24 -25 -24 -24 -23 -23 -24 -23 -23 -24 -24 -24 -23 -23 -23 -23 -23 -23 -23 -23 -23 -23 -24 -24 -24
-28 -27 -27 -27 -26 -27 -27 -26 -25 -25 -25 -25 -25 -24 -25 -24 -24 -25 -24 -25 -24 -24 -24 -24 -24 -24 -24 -25 -24 -24 -23 -23 -23 -23 -23 -23 -23 -23 -24 -24 -24 -24 -24
-28 -28 -29 -28 -27 -27 -27 -26 -26 -26 -25 -25 -25 -25 -25 -25 -25 -25 -25 -25 -25 -24 -24 -24 -24 -24 -25 -25 -25 -24 -24 -24 -23 -24 -24 -24 -24 -24 -24 -24 -24 -24 -24
-29 -29 -29 -29 -28 -27 -27 -26 -26 -26 -25 -26 -25 -25 -26 -25 -25 -25 -25 -25 -25 -25 -25 -25 -25 -25 -25 -25 -25 -24 -24 -24 -24 -24 -24 -24 -24 -24 -24 -24 -24 -24 -24
-31 -30 -29 -29 -28 -29 -28 -27 -26 -26 -26 -26 -25 -26 -26 -25 -25 -25 -25 -25 -25 -25 -25 -25 -26 -26 -26 -25 -25 -24 -24 -24 -24 -24 -24 -25 -24 -25 -25 -25 -25 -24 -24
Height
5650 5651 5653 5653 5654 5654 5654 5653 5653 5653 5652 5650 5648 5645 5642 5639 5634 5629 5623 5617 5610 5603 5595 5587 5576 5566 5553 5540 5526 5511 5494 5476 5458 5438 5419 5400 5382 5363 5346 5332 5322 5316 5318
5640 5641 5643 5643 5643 5643 5644 5643 5643 5642 5641 5639 5637 5635 5632 5628 5624 5619 5613 5608 5601 5594 5586 5577 5567 5557 5544 5530 5517 5501 5484 5463 5444 5427 5405 5390 5369 5350 5333 5321 5310 5302 5301
5630 5631 5631 5632 5632 5633 5633 5633 5633 5631 5630 5629 5627 5624 5621 5618 5614 5610 5604 5598 5592 5585 5577 5569 5559 5548 5536 5523 5508 5493 5477 5456 5434 5415 5399 5378 5360 5345 5330 5318 5308 5302 5299
5619 5620 5620 5621 5621 5622 5623 5623 5622 5620 5620 5618 5617 5614 5612 5608 5605 5600 5594 5589 5583 5575 5568 5560 5550 5540 5529 5516 5500 5485 5468 5448 5427 5408 5391 5376 5360 5343 5329 5320 5312 5305 5301
5607 5609 5610 5610 5611 5612 5613 5612 5611 5610 5609 5607 5606 5604 5602 5599 5595 5590 5585 5580 5574 5566 5559 5552 5543 5533 5522 5510 5496 5481 5464 5444 5424 5407 5392 5375 5361 5345 5333 5323 5316 5312 5308
5593 5597 5599 5600 5600 5601 5601 5600 5599 5599 5597 5596 5595 5594 5591 5588 5584 5580 5575 5571 5565 5559 5552 5543 5535 5526 5515 5503 5489 5475 5461 5442 5422 5407 5392 5378 5364 5349 5338 5327 5319 5315 5314
5582 5585 5588 5589 5589 5590 5589 5588 5588 5587 5585 5585 5584 5582 5580 5578 5574 5570 5565 5561 5557 5551 5545 5537 5528 5519 5510 5498 5485 5471 5457 5440 5421 5408 5395 5380 5368 5355 5344 5334 5325 5320 5320
5570 5573 5576 5579 5578 5577 5576 5575 5575 5573 5573 5573 5572 5571 5569 5566 5563 5560 5556 5552 5548 5543 5537 5530 5522 5513 5505 5494 5482 5469 5456 5440 5421 5407 5396 5383 5372 5362 5351 5342 5334 5330 5330
5556 5558 5561 5563 5561 5561 5562 5562 5562 5560 5560 5560 5559 5558 5557 5555 5553 5550 5547 5543 5539 5534 5529 5523 5515 5507 5499 5490 5480 5468 5455 5440 5422 5411 5398 5386 5377 5369 5359 5352 5346 5342 5342
5539 5541 5542 5543 5542 5545 5546 5547 5547 5547 5546 5546 5547 5546 5545 5544 5541 5539 5536 5533 5530 5525 5521 5514 5508 5502 5495 5487 5477 5467 5455 5440 5425 5412 5402 5390 5382 5375 5367 5361 5356 5352 5351
5519 5523 5526 5527 5528 5530 5531 5532 5532 5532 5532 5533 5533 5533 5532 5531 5530 5528 5527 5523 5520 5516 5512 5507 5501 5496 5491 5483 5475 5466 5455 5441 5427 5415 5407 5396 5388 5381 5375 5369 5363 5360 5358
5501 5505 5508 5510 5514 5515 5517 5517 5517 5518 5518 5519 5520 5520 5519 5519 5518 5517 5516 5514 5511 5508 5504 5500 5494 5489 5485 5478 5472 5464 5455 5442 5430 5419 5410 5401 5393 5386 5381 5376 5371 5366 5364
5484 5487 5489 5492 5496 5498 5499 5501 5503 5503 5504 5505 5506 5507 5506 5506 5506 5505 5504 5503 5501 5499 5496 5492 5487 5483 5479 5474 5469 5461 5455 5444 5433 5423 5413 5406 5400 5392 5387 5383 5378 5373 5369
5464 5468 5471 5474 5477 5479 5481 5484 5487 5488 5489 5489 5491 5493 5493 5494 5493 5492 5492 5491 5491 5489 5486 5483 5479 5476 5473 5469 5465 5459 5454 5445 5435 5426 5416 5410 5405 5398 5390 5385 5381 5377 5374
5444 5448 5451 5455 5458 5460 5464 5467 5470 5472 5473 5474 5477 5479 5480 5481 5478 5480 5478 5479 5479 5478 5476 5474 5470 5468 5466 5464 5460 5456 5452 5445 5436 5429 5419 5411 5408 5402 5395 5388 5382 5379 5376
5426 5429 5431 5436 5438 5441 5446 5449 5451 5454 5456 5459 5462 5464 5464 5466 5466 5466 5465 5467 5467 5466 5465 5464 5462 5459 5458 5457 5455 5452 5448 5444 5437 5431 5423 5415 5409 5405 5398 5392 5385 5379 5376
5405 5408 5411 5415 5419 5423 5427 5431 5434 5437 5441 5444 5448 5449 5450 5451 5452 5452 5453 5454 5455 5455 5454 5453 5452 5451 5450 5449 5449 5447 5444 5442 5437 5432 5427 5420 5413 5407 5400 5394 5388 5382 5376
5382 5383 5387 5393 5399 5404 5408 5412 5417 5421 5425 5429 5431 5434 5435 5436 5437 5437 5439 5441 5443 5442 5442 5442 5442 5441 5441 5441 5441 5440 5439 5437 5435 5432 5430 5425 5420 5413 5404 5397 5392 5390 5385
5357 5362 5367 5373 5378 5382 5389 5395 5401 5405 5408 5412 5416 5419 5421 5421 5422 5424 5426 5428 5429 5431 5431 5431 5431 5432 5431 5432 5432 5433 5433 5432 5431 5430 5429 5425 5423 5419 5412 5406 5402 5400 5397
5334 5339 5345 5353 5358 5364 5371 5376 5382 5388 5391 5396 5401 5403 5402 5407 5411 5412 5413 5414 5418 5420 5420 5421 5421 5422 5423 5422 5424 5424 5425 5426 5426 5425 5426 5424 5423 5421 5418 5413 5410 5407 5406
5307 5314 5320 5329 5336 5341 5350 5357 5363 5369 5375 5378 5385 5383 5386 5392 5397 5399 5399 5401 5404 5407 5408 5410 5410 5412 5414 5413 5415 5415 5416 5418 5419 5420 5420 5420 5420 5420 5418 5417 5414 5412 5410
5280 5288 5294 5307 5313 5321 5328 5338 5343 5352 5359 5363 5365 5368 5370 5378 5382 5386 5387 5389 5392 5395 5397 5398 5399 5400 5402 5403 5405 5406 5407 5408 5410 5412 5414 5414 5415 5416 5416 5416 5415 5414 5413
5250 5260 5271 5282 5290 5296 5306 5317 5326 5333 5342 5347 5348 5352 5357 5363 5368 5372 5375 5376 5380 5383 5385 5386 5387 5389 5391 5392 5395 5397 5398 5399 5401 5404 5406 5407 5409 5410 5410 5412 5413 5412 5412
5220 5232 5244 5256 5267 5274 5284 5294 5304 5314 5323 5328 5332 5336 5343 5350 5355 5357 5361 5364 5368 5372 5373 5375 5375 5377 5380 5382 5385 5387 5388 5390 5392 5395 5398 5400 5402 5403 5404 5406 5407 5409 5409
5186 5200 5218 5231 5244 5253 5262 5273 5286 5297 5305 5309 5314 5321 5327 5335 5341 5343 5349 5351 5356 5360 5361 5363 5364 5367 5370 5372 5375 5377 5378 5380 5383 5386 5389 5391 5394 5396 5398 5399 5401 5402 5403
5152 5167 5185 5205 5224 5232 5243 5255 5266 5276 5283 5290 5298 5306 5311 5320 5326 5330 5335 5338 5344 5348 5350 5352 5354 5357 5360 5363 5365 5367 5368 5370 5373 5376 5380 5383 5385 5388 5390 5392 5393 5395 5397
Wind_Speed
44 43 42 42 42 42 40 40 41 41 42 42 44 46 46 46 48 49 49 52 53 56 58 60 66 68 68 70 76 82 81 88 88 78 76 71 71 69 59 51 45 42 53
39 38 39 41 41 40 38 39 40 41 42 44 45 44 44 46 47 48 51 51 52 56 58 60 63 65 67 70 76 78 83 89 84 75 67 67 69 63 53 48 42 32 28
35 38 40 40 39 38 39 40 40 42 44 44 43 43 44 45 47 48 51 50 53 57 56 57 61 63 65 69 73 74 83 88 80 73 63 67 64 55 44 43 38 32 17
37 39 41 41 42 42 41 41 42 45 45 45 43 43 43 45 47 49 49 48 53 55 54 56 58 60 62 68 69 74 82 88 75 65 62 63 61 50 42 34 30 23 11
43 43 44 46 46 44 43 44 46 47 46 44 43 42 43 43 46 48 48 49 51 50 49 52 56 58 60 66 65 73 78 85 69 56 54 60 58 50 39 31 24 22 14
46 42 43 45 48 46 46 47 48 45 45 45 43 42 42 42 46 48 48 49 50 48 47 50 54 54 59 61 63 72 74 82 63 51 51 54 55 48 40 33 24 18 15
51 47 44 46 49 48 49 49 46 45 45 44 43 42 41 42 46 49 48 48 47 48 46 47 51 52 57 55 58 68 70 77 59 49 46 50 50 46 39 32 25 17 12
56 54 52 48 51 51 51 49 47 46 46 45 43 43 43 44 47 49 48 47 46 47 44 43 46 48 52 49 54 63 66 72 53 48 43 45 46 42 39 28 22 17 10
61 60 55 50 54 55 52 50 50 50 49 48 46 44 44 45 47 48 47 45 44 46 41 42 42 45 47 46 48 56 61 66 51 47 46 40 39 37 35 28 15 14 11
60 59 58 56 59 56 55 54 53 53 51 49 47 45 44 45 47 46 45 44 43 43 41 40 39 41 42 42 45 49 55 63 51 45 46 36 32 30 31 26 17 8 7
59 57 58 60 61 58 58 56 52 51 50 49 47 46 45 46 45 46 43 42 41 40 39 39 37 38 39 39 40 44 49 53 51 42 37 31 25 24 25 23 17 10 6
57 56 55 54 52 52 53 52 52 52 53 52 50 47 46 46 45 46 44 40 40 38 38 38 35 35 35 36 37 40 42 46 49 40 32 31 22 19 17 16 17 16 9
57 58 58 58 58 58 57 58 57 56 56 52 48 46 47 48 47 47 46 43 41 39 38 37 36 34 33 32 31 33 37 41 44 39 32 29 25 24 14 12 12 11 10
60 59 60 59 58 59 57 56 56 57 54 53 53 50 48 48 49 49 48 45 43 44 40 35 37 34 29 29 29 26 32 35 38 40 32 21 19 22 21 15 10 12 10
59 61 63 63 63 57 58 58 56 57 57 58 57 53 51 48 52 51 50 47 46 40 37 37 38 37 32 27 27 22 25 31 32 36 36 21 16 18 26 19 11 7 7
63 67 67 66 66 61 59 59 59 60 62 63 56 51 52 51 54 55 54 50 42 39 38 37 39 38 32 27 26 21 20 25 28 30 33 30 21 17 23 18 14 8 2
76 76 77 77 75 75 70 72 69 61 56 55 50 54 56 57 56 56 52 45 41 36 34 35 38 35 29 27 26 22 18 20 23 27 27 30 28 24 11 10 17 25 17
62 73 72 72 68 64 65 63 58 56 50 50 49 52 53 51 46 44 41 36 36 35 34 35 36 33 29 28 27 23 21 17 18 20 21 21 22 24 24 27 24 22 18
75 71 53 53 59 58 68 55 59 54 55 48 49 54 53 49 42 41 42 33 34 35 36 36 35 31 30 31 29 27 23 21 19 17 18 17 17 16 20 26 28 28 23
75 63 59 57 60 63 69 64 60 57 58 49 53 62 55 52 39 41 39 34 33 36 38 38 37 34 33 33 30 29 27 25 22 18 17 15 11 8 9 13 17 19 22
83 73 64 67 70 67 53 60 52 54 50 48 58 49 40 34 41 40 37 30 35 38 38 41 38 33 36 36 31 29 30 28 26 20 17 15 13 7 3 4 8 11 13
81 79 70 71 77 75 64 64 55 61 54 51 48 39 42 34 36 35 34 31 37 39 42 43 39 33 38 39 34 29 29 29 26 22 17 14 15 14 11 7 3 3 5
90 82 79 81 80 76 77 69 72 70 65 56 49 51 44 39 36 35 31 33 37 39 42 42 38 36 39 37 29 33 27 31 28 23 20 16 16 18 17 16 13 9 7
95 85 76 82 88 83 76 71 72 78 72 53 50 50 41 40 40 38 37 34 38 42 43 37 34 37 35 33 36 32 31 29 31 26 22 19 18 19 19 19 19 17 15
107 97 97 90 85 85 74 76 63 70 59 48 45 41 41 46 38 35 45 39 38 43 41 35 35 36 30 31 32 31 31 30 32 30 25 23 20 21 21 20 19 19 19
112 120 120 112 103 95 73 72 58 61 51 53 41 47 41 49 41 36 37 31 32 35 33 32 32 37 34 33 31 31 32 32 34 33 28 26 24 23 23 23 23 22 21
Wind_Direction
251 255 259 262 263 265 267 270 273 277 279 282 285 289 293 297 300 303 305 308 311 316 319 321 320 324 323 319 323 325 327 328 334 329 329 328 328 326 319 314 300 281 258
253 254 256 258 261 263 267 269 272 275 279 283 287 290 294 298 301 302 305 308 312 317 319 321 321 325 322 322 325 328 328 332 336 332 332 336 335 332 330 332 317 300 263
250 252 256 258 261 264 267 270 274 278 282 285 287 290 295 299 301 302 304 308 312 317 319 321 323 326 324 323 326 329 331 334 336 335 338 342 341 340 340 334 331 320 276
252 253 255 259 263 266 270 275 277 279 282 285 287 290 295 298 299 301 303 307 312 317 318 321 323 325 324 324 328 329 334 336 336 337 343 347 346 348 349 341 336 338 308
249 251 254 259 261 267 272 274 276 279 284 285 287 290 294 296 299 301 304 307 313 315 318 319 322 326 323 325 330 331 336 338 337 338 347 351 349 351 352 344 329 331 319
250 248 251 256 263 267 270 273 277 281 282 284 286 290 293 296 299 299 302 306 311 313 314 315 323 325 322 327 331 331 338 340 339 338 348 354 352 353 353 354 344 332 322
255 256 253 255 261 266 269 273 277 279 281 282 285 289 291 294 296 296 300 306 309 314 313 316 320 324 322 329 331 333 340 343 341 339 345 354 355 355 359 354 353 2 6
261 263 262 263 266 266 268 271 275 277 279 281 283 285 287 290 293 295 298 305 307 312 312 314 317 321 323 332 330 334 341 344 344 345 341 350 354 359 1 2 9 29 52
266 268 271 268 265 264 265 269 272 274 279 279 280 280 283 288 290 293 296 301 304 309 313 312 317 319 324 329 330 336 342 347 347 348 349 351 351 0 5 8 10 52 69
261 263 263 259 259 261 264 265 268 272 273 274 276 277 284 287 288 290 293 297 298 306 311 313 317 318 323 327 330 338 345 349 349 346 350 359 356 1 10 8 16 41 111
255 259 259 259 261 261 262 263 264 267 269 271 273 277 281 283 284 286 290 289 296 302 306 310 314 317 321 325 329 337 343 351 349 349 349 351 359 6 15 13 15 19 47
254 255 258 259 261 264 264 264 265 266 267 269 272 275 276 279 282 283 287 283 293 297 301 303 309 316 319 322 324 334 341 351 356 350 345 352 355 10 23 29 33 36 43
252 252 252 255 258 262 264 266 265 264 267 270 273 274 276 280 280 279 282 281 286 291 296 297 301 306 315 314 320 334 340 347 357 353 346 348 6 13 16 31 26 18 17
252 255 259 258 256 257 258 261 262 264 266 269 271 276 278 281 276 274 277 276 285 292 291 291 293 300 310 304 310 332 339 347 356 358 351 339 3 18 23 16 14 3 345
245 245 246 246 247 248 252 254 257 260 264 269 273 277 279 278 271 273 272 274 282 285 286 289 289 291 297 294 298 319 337 344 355 358 0 346 335 0 15 16 16 37 21
246 247 244 245 243 246 252 257 261 264 267 269 275 276 276 274 270 271 272 274 279 285 291 290 287 288 289 284 283 300 327 340 354 0 6 8 355 334 349 4 19 7 314
251 250 245 245 247 250 252 257 259 260 262 267 269 274 267 264 265 267 264 269 281 281 278 281 284 288 285 274 269 282 305 325 340 353 360 8 6 14 14 37 20 30 71
244 240 239 243 248 251 252 251 252 253 261 265 266 265 259 260 256 259 261 274 277 269 269 272 279 282 275 268 260 265 281 300 318 336 350 355 8 20 45 51 54 44 41
238 238 243 249 250 255 251 246 249 257 265 260 263 255 263 259 257 263 261 265 266 265 269 273 275 275 267 263 254 255 264 279 294 310 324 342 351 20 45 62 63 65 70
238 236 233 245 247 249 242 243 242 257 265 248 259 262 256 259 255 265 266 260 263 264 269 273 276 274 264 260 257 249 253 263 274 288 300 311 324 349 30 62 73 72 73
237 240 242 249 251 245 236 243 249 250 250 256 252 242 247 252 251 263 252 255 260 261 266 270 272 268 262 259 256 254 250 254 264 274 280 293 288 280 309 59 77 83 87
234 239 241 244 252 253 244 235 238 249 253 244 250 248 268 255 248 252 257 260 263 261 262 266 268 263 258 259 252 257 251 251 257 263 258 273 276 264 249 243 209 140 112
234 233 240 246 253 256 245 245 244 247 247 248 243 255 249 246 240 246 260 257 261 264 263 267 266 258 256 257 250 252 254 251 252 256 252 252 265 261 249 243 237 230 221
233 234 240 244 248 255 248 245 248 247 248 239 245 241 236 246 248 244 249 252 259 264 268 262 256 251 254 257 247 254 246 250 247 251 249 242 254 258 252 247 243 240 236
236 233 235 247 253 250 245 242 241 240 230 234 230 237 238 238 243 253 254 249 253 259 262 250 248 243 248 253 248 248 249 243 242 245 249 240 246 252 252 247 246 242 243
249 249 247 246 247 247 244 235 229 229 230 232 228 232 241 237 247 235 229 236 244 250 241 244 244 239 246 252 253 246 248 242 241 240 244 239 248 249 249 247 245 246 243